[[{"header":{"parameterUnit":"m.s-1","parameterCategory":1,"la1":30.2991,"la2":30.254,"lo1":-89.0895,"lo2":-89.0444,"dy":0.0017,"dx":0.0017,"nx":28,"ny":28,"refTime":"2026-02-07T09:00:00:Z","depth":0,"parameterNumber":2,"parameterNumberName":"U-component_of_WINDS"},"data":[0,0,0,0,0,0,0,0,0,0,0,0,0,0,0,0,0,0,0,0,0,0,0,0,0,0,0,0,0,0,0,0,0,0,0,0,0,0,0,0,0,0,0,0,0,0,0,0,0,0,0,0,0,0,0,0,0,0,-1.8029,-1.803,0,-1.8056,-1.8056,-1.8056,-1.8027,-1.8026,-1.8025,-1.8024,-1.805,-1.8052,-1.8054,0,0,0,0,0,0,0,0,0,0,0,0,0,-1.7954,-1.7955,-1.8029,-1.803,-1.803,-1.8056,-1.8056,-1.8056,-1.8027,-1.8026,-1.8024,-1.8023,-1.805,-1.8052,-1.8054,0,0,0,0,0,0,0,0,0,0,0,0,0,-1.7984,-1.7956,-1.8029,-1.8019,-1.8018,-1.8056,-1.8056,-1.8056,-1.8027,-1.8026,-1.8024,-1.8022,-1.8049,-1.8052,-1.8054,-1.8104,0,0,-1.8062,-1.8063,0,0,0,0,0,0,0,0,-1.7982,-1.7987,-1.802,-1.8019,-1.8019,-1.8036,-1.8039,-1.8072,-1.8028,-1.8024,-1.8024,-1.8022,-1.8047,-1.805,-1.8058,-1.8105,-1.8106,-1.8062,-1.8064,-1.8065,-1.8066,0,0,0,0,0,0,0,-1.798,-1.7986,-1.804,-1.802,-1.802,-1.8012,-1.8015,-1.8045,-1.8044,-1.8024,-1.8022,-1.8025,-1.8046,-1.8056,-1.8059,-1.8107,-1.8062,-1.8065,-1.8066,-1.8067,-1.8195,-1.8196,0,0,0,0,0,0,-1.798,-1.7984,-1.8039,-1.8041,-1.7996,-1.8015,-1.8018,-1.8032,-1.8044,-1.8044,-1.8027,-1.8024,-1.8052,-1.8056,-1.806,-1.8117,-1.8065,-1.8068,-1.8069,-1.8193,-1.8195,-1.8197,0,0,0,0,0,0,-1.7978,-1.7985,-1.8038,-1.8012,-1.8018,-1.8018,-1.8035,-1.8034,-1.8043,-1.8046,-1.8046,-1.8037,-1.8051,-1.8056,-1.8093,-1.8118,-1.8069,-1.8071,-1.8191,-1.8193,-1.8196,-1.8234,0,0,0,0,0,0,-1.7976,-1.7984,-1.8003,-1.8012,-1.802,-1.8071,-1.8036,-1.8035,-1.8048,-1.8044,-1.8055,-1.8055,-1.805,-1.8089,-1.8095,-1.8121,-1.8073,-1.8188,-1.8192,-1.8195,-1.823,-1.8238,-1.8244,0,0,0,0,0,-1.7973,-1.8013,-1.8004,-1.8011,-1.8043,-1.8072,-1.8076,-1.8069,-1.805,-1.8069,-1.8071,-1.8055,-1.8115,-1.8093,-1.81,-1.8126,-1.8187,-1.8191,-1.8195,-1.8227,-1.8236,-1.8244,0,0,0,0,0,0,-1.8006,-1.8014,-1.8004,-1.8048,-1.806,-1.8067,-1.8091,-1.8079,-1.8096,-1.8092,-1.8083,-1.8086,-1.8125,-1.813,-1.8106,-1.8175,-1.8147,-1.8153,-1.817,-1.8178,-1.8185,-1.8182,-1.8075,0,0,0,0,0,-1.8019,-1.8042,-1.8048,-1.8086,-1.8092,-1.8091,-1.8103,-1.8097,-1.8108,-1.8113,-1.8118,-1.813,-1.8151,-1.8165,-1.8185,-1.8232,-1.8233,-1.8253,-1.826,-1.8265,-1.827,-1.8294,-1.8302,-1.821,-1.821,-1.821,0,0,-1.8045,-1.8052,-1.8067,-1.8092,-1.8101,-1.8125,-1.8095,-1.8122,-1.8139,-1.8117,-1.8152,-1.8156,-1.8169,-1.8211,-1.8229,-1.8216,-1.8296,-1.827,-1.8275,-1.8276,-1.8299,-1.8308,-1.8315,-1.8213,-1.8212,-1.8212,0,0,-1.8103,-1.8112,-1.8144,-1.8153,-1.8166,-1.8165,-1.8173,-1.8182,-1.8184,-1.8219,-1.8202,-1.8224,-1.8261,-1.827,-1.828,-1.8343,-1.8329,-1.835,-1.8384,-1.8407,-1.8415,-1.8421,-1.8442,-1.845,-1.8354,-1.8355,-1.8355,0,-1.8134,-1.8169,-1.8162,-1.819,-1.8201,-1.8183,-1.8215,-1.8224,-1.8243,-1.8251,-1.8236,-1.8282,-1.8289,-1.8332,-1.8348,-1.8357,-1.8365,-1.8347,-1.8414,-1.8421,-1.8426,-1.8446,-1.8455,-1.8357,-1.8357,-1.8356,-1.8356,0,-1.8205,-1.823,-1.8255,-1.8273,-1.8287,-1.8317,-1.8314,-1.833,-1.8323,-1.8323,-1.8359,-1.8367,-1.8388,-1.8398,-1.8391,-1.844,-1.8431,-1.8416,-1.8388,-1.8438,-1.8456,-1.8464,-1.836,-1.8359,-1.8359,-1.8358,0,0,-1.8284,-1.8299,-1.8307,-1.8315,-1.8329,-1.8348,-1.8377,-1.8397,-1.841,-1.8424,-1.8448,-1.848,-1.8465,-1.8476,-1.8471,-1.8492,-1.854,-1.8473,-1.8473,-1.8484,-1.8593,-1.8603,-1.8612,-1.8531,-1.8533,-1.8534,-1.8591,0,-1.8342,-1.8392,-1.8387,-1.8434,-1.8457,-1.844,-1.8465,-1.8476,-1.8478,-1.8497,-1.8499,-1.8521,-1.8501,-1.8507,-1.8527,-1.8529,-1.8561,-1.8526,-1.8552,-1.8553,-1.8548,-1.8622,-1.8634,-1.8687,-1.8599,-1.86,-1.8601,0,-1.8416,-1.8432,-1.8482,-1.8492,-1.8501,-1.8524,-1.8542,-1.8561,-1.8573,-1.8572,-1.8585,-1.8576,-1.8605,-1.8578,-1.8617,-1.8593,-1.8604,-1.8607,-1.8609,-1.8609,-1.8579,-1.8624,-1.8704,-1.8712,-1.8612,-1.8612,-1.8611,0,-1.8467,-1.8502,-1.8535,-1.8543,-1.8555,-1.8572,-1.8577,-1.8588,-1.86,-1.8616,-1.8624,-1.8644,-1.8654,-1.8669,-1.8665,-1.8646,-1.8705,-1.8678,-1.8705,-1.8705,-1.8717,-1.8716,-1.8799,-1.8727,-1.8727,-1.8726,-1.8726,0,-1.8531,-1.8562,-1.8558,-1.8579,-1.8613,-1.8607,-1.8641,-1.8644,-1.8654,-1.8675,-1.8663,-1.8683,-1.8677,-1.8697,-1.8694,-1.8727,-1.8732,-1.8732,-1.873,-1.8732,-1.8732,-1.8738,-1.8733,-1.8729,-1.8728,-1.8728,-1.8727,0,-1.8593,-1.8592,-1.8627,-1.8636,-1.8639,-1.8664,-1.8671,-1.8691,-1.8692,-1.8718,-1.8724,-1.8726,-1.8748,-1.8746,-1.8772,-1.877,-1.881,-1.8805,-1.8806,-1.8804,-1.883,-1.8827,-1.8919,-1.893,-1.8852,-1.8853,-1.8854,0,-1.8633,-1.8656,-1.8667,-1.868,-1.8687,-1.8709,-1.8721,-1.8717,-1.873,-1.8746,-1.8763,-1.8785,-1.8802,-1.8839,-1.8842,-1.8861,-1.8856,-1.8886,-1.8858,-1.8859,-1.8854,-1.8852,-1.8854,-1.8891,-1.8892,-1.8893,-1.8893,0,-1.8704,-1.8702,-1.8721,-1.8739,-1.8755,-1.8769,-1.8782,-1.8794,-1.879,-1.8806,-1.8829,-1.8842,-1.8868,-1.889,-1.8908,-1.8914,-1.8903,-1.8903,-1.8909,-1.891,-1.8909,-1.8908,-1.8819,-1.89,-1.8899,-1.8899,-1.8899,-1.8898,-1.8755,-1.8774,-1.8785,-1.8806,-1.8815,-1.8828,-1.8846,-1.885,-1.8869,-1.8889,-1.8886,-1.8911,-1.8923,-1.8946,-1.8954,-1.8974,-1.8963,-1.8973,-1.8976,-1.8978,-1.898,-1.8907,-1.8978,-1.8978,-1.8977,-1.8977,-1.8977,0,-1.8823,-1.883,-1.8849,-1.8868,-1.8884,-1.8873,-1.8887,-1.8901,-1.8924,-1.8936,-1.8953,-1.8979,-1.8999,-1.9005,-1.9024,-1.9039,-1.9034,-1.9044,-1.9042,-1.9044,-1.899,-1.8981,-1.9048,-1.9048,-1.9048,-1.9048,-1.9048,-1.9048,-1.8861,-1.8893,-1.8893,-1.8929,-1.8935,-1.896,-1.8969,-1.898,-1.8989,-1.9019,-1.9036,-1.904,-1.9048,-1.9069,-1.9087,-1.9088,-1.9095,-1.9107,-1.9106,-1.9055,-1.9048,-1.9041,-1.9032,-1.9109,-1.9109,-1.9158,-1.9158,-1.9158]},{"header":{"parameterUnit":"m.s-1","parameterCategory":1,"la1":30.2991,"la2":30.254,"lo1":-89.0895,"lo2":-89.0444,"dy":0.0017,"dx":0.0017,"nx":28,"ny":28,"refTime":"2026-02-07T09:00:00:Z","depth":0,"parameterNumber":3,"parameterNumberName":"V-component_of_WINDS"},"data":[0,0,0,0,0,0,0,0,0,0,0,0,0,0,0,0,0,0,0,0,0,0,0,0,0,0,0,0,0,0,0,0,0,0,0,0,0,0,0,0,0,0,0,0,0,0,0,0,0,0,0,0,0,0,0,0,0,0,1.568,1.568,0,1.5765,1.5766,1.5767,1.5783,1.5783,1.5782,1.5782,1.5868,1.5871,1.5873,0,0,0,0,0,0,0,0,0,0,0,0,0,1.553,1.5533,1.5679,1.5681,1.5682,1.5765,1.5766,1.5767,1.5784,1.5783,1.5782,1.5781,1.5867,1.587,1.5874,0,0,0,0,0,0,0,0,0,0,0,0,0,1.5603,1.5533,1.5679,1.57,1.5703,1.5765,1.5766,1.5768,1.5784,1.5783,1.5782,1.5781,1.5866,1.587,1.5874,1.5921,0,0,1.5888,1.5889,0,0,0,0,0,0,0,0,1.5599,1.5609,1.5696,1.5699,1.5702,1.5763,1.5745,1.5819,1.5784,1.5753,1.5781,1.578,1.5833,1.584,1.5859,1.5925,1.5929,1.5888,1.5891,1.5892,1.5894,0,0,0,0,0,0,0,1.5594,1.5605,1.5713,1.5697,1.5701,1.5705,1.5714,1.5759,1.5798,1.5756,1.5757,1.5767,1.5835,1.5854,1.5861,1.593,1.5888,1.5892,1.5894,1.5896,1.6042,1.6043,0,0,0,0,0,0,1.5585,1.5601,1.5711,1.5716,1.5647,1.5708,1.5719,1.5744,1.5797,1.5804,1.5768,1.5767,1.5847,1.5856,1.5864,1.5924,1.5892,1.5897,1.5899,1.6041,1.6042,1.6043,0,0,0,0,0,0,1.5582,1.5595,1.5707,1.5659,1.5673,1.5712,1.574,1.5746,1.5766,1.5807,1.5813,1.5781,1.5847,1.5858,1.5907,1.5927,1.5899,1.5903,1.6039,1.6041,1.6043,1.6044,0,0,0,0,0,0,1.5578,1.5594,1.5612,1.5659,1.5676,1.5749,1.5742,1.5749,1.5774,1.5774,1.582,1.5827,1.5847,1.5901,1.5912,1.5933,1.5906,1.6038,1.604,1.6042,1.6042,1.6045,1.6048,0,0,0,0,0,1.5572,1.5608,1.5613,1.5626,1.57,1.5751,1.576,1.5783,1.5775,1.5794,1.582,1.5826,1.5923,1.5906,1.5918,1.5941,1.6036,1.6039,1.6042,1.6041,1.6045,1.6048,0,0,0,0,0,0,1.5562,1.5615,1.562,1.5673,1.5707,1.5753,1.5778,1.5786,1.5823,1.5821,1.5847,1.5858,1.5906,1.5928,1.5908,1.599,1.5979,1.5985,1.5974,1.5978,1.5981,1.5975,1.591,0,0,0,0,0,1.5566,1.5603,1.5647,1.5689,1.5706,1.5739,1.5762,1.5776,1.5813,1.5827,1.5857,1.5892,1.5931,1.5955,1.5993,1.6045,1.6056,1.6067,1.607,1.6072,1.6077,1.6107,1.6113,1.6053,1.6053,1.6053,0,0,1.5574,1.5607,1.5629,1.5687,1.5716,1.5754,1.5751,1.5791,1.5819,1.5833,1.5882,1.5906,1.5946,1.5998,1.6022,1.6018,1.6096,1.6076,1.6077,1.6081,1.6111,1.6116,1.6121,1.6055,1.6054,1.6054,0,0,1.5608,1.5637,1.5676,1.5705,1.5748,1.577,1.5779,1.5824,1.5841,1.5891,1.5902,1.5936,1.6002,1.6031,1.6054,1.6101,1.6108,1.6112,1.6128,1.6158,1.6163,1.6167,1.6185,1.6191,1.6117,1.6117,1.6117,0,1.5613,1.5671,1.5694,1.5735,1.5761,1.5775,1.5815,1.5842,1.5895,1.5912,1.5907,1.5991,1.6019,1.6078,1.609,1.6108,1.6119,1.6107,1.616,1.6165,1.6169,1.6186,1.6193,1.6117,1.6117,1.6117,1.6117,0,1.5675,1.5715,1.5741,1.5793,1.5822,1.5862,1.5891,1.5917,1.593,1.5952,1.6003,1.6038,1.6084,1.6098,1.611,1.616,1.6156,1.6155,1.6145,1.6175,1.6192,1.6198,1.6118,1.6117,1.6117,1.6117,0,0,1.5705,1.5771,1.578,1.5805,1.5854,1.5885,1.5926,1.5971,1.5994,1.603,1.6065,1.6121,1.612,1.6147,1.6162,1.6188,1.6224,1.6184,1.6185,1.6191,1.6282,1.6283,1.6291,1.6229,1.623,1.6231,1.6279,0,1.5747,1.582,1.5843,1.5905,1.5943,1.5958,1.5993,1.6027,1.605,1.6085,1.6109,1.6149,1.6145,1.6161,1.6187,1.6214,1.6243,1.6211,1.6262,1.6264,1.6252,1.6299,1.6301,1.6344,1.6286,1.6287,1.6288,0,1.5805,1.5844,1.5909,1.5955,1.5972,1.6003,1.6047,1.6081,1.612,1.6134,1.6164,1.6178,1.6221,1.6208,1.6268,1.6246,1.6268,1.6285,1.6287,1.6293,1.6278,1.6308,1.6359,1.6366,1.6298,1.6297,1.6296,0,1.5822,1.589,1.5939,1.5959,1.6013,1.6035,1.6058,1.6097,1.6123,1.6161,1.6179,1.6221,1.6244,1.6277,1.6302,1.629,1.636,1.6349,1.6374,1.6373,1.6389,1.6387,1.6445,1.6401,1.6401,1.6401,1.6401,0,1.5867,1.5906,1.5947,1.5977,1.6022,1.6048,1.6092,1.6116,1.615,1.6185,1.62,1.6233,1.6263,1.6299,1.6319,1.6366,1.6376,1.639,1.6395,1.6389,1.6388,1.6405,1.6403,1.6403,1.6402,1.6402,1.6402,0,1.5894,1.5922,1.5976,1.6024,1.6037,1.6068,1.6108,1.6138,1.6161,1.6205,1.6217,1.6253,1.6297,1.6325,1.638,1.6393,1.6446,1.6449,1.6433,1.6435,1.6459,1.6457,1.653,1.6542,1.6489,1.649,1.649,0,1.5921,1.5952,1.6003,1.6028,1.6052,1.6091,1.6119,1.6145,1.6173,1.6221,1.6245,1.629,1.6327,1.6396,1.6428,1.647,1.6475,1.6498,1.6482,1.6476,1.6477,1.6476,1.6479,1.6501,1.6501,1.6502,1.6502,0,1.5966,1.5979,1.6018,1.6062,1.6094,1.613,1.6166,1.6185,1.6218,1.6249,1.6294,1.6323,1.6381,1.6425,1.6471,1.6495,1.6505,1.6507,1.6515,1.651,1.65,1.6507,1.6441,1.6505,1.6505,1.6505,1.6504,1.6504,1.5995,1.6024,1.6065,1.6108,1.6138,1.6171,1.6202,1.6229,1.6268,1.6317,1.633,1.6378,1.6417,1.648,1.6505,1.6543,1.654,1.6551,1.6554,1.6557,1.6558,1.6493,1.6551,1.6551,1.6551,1.6551,1.6551,0,1.6042,1.6069,1.6109,1.6159,1.6193,1.6199,1.6239,1.6267,1.631,1.6346,1.6383,1.6435,1.6479,1.6514,1.6559,1.6583,1.6588,1.6594,1.6593,1.6598,1.6558,1.6547,1.6589,1.6589,1.6589,1.6589,1.6588,1.6588,1.6071,1.6121,1.6139,1.6204,1.623,1.6278,1.6301,1.6332,1.6361,1.6419,1.6456,1.6479,1.6515,1.6562,1.6603,1.6612,1.6628,1.6633,1.6643,1.6605,1.6601,1.6597,1.6587,1.6636,1.6636,1.6681,1.6681,1.6682]}]]